CAPE
709 309 155 304 202 235 442 133 385 457 475 502 473 544 729 792 717 674 796 740 828 780
673 299 309 349 302 286 195 167 254 292 332 354 295 395 655 685 796 674 584 744 995 1264
586 428 394 286 141 145 169 60 114 156 243 357 359 360 623 817 610 687 665 688 978 798
511 396 360 334 147 95 114 91 65 64 187 182 344 551 671 500 400 461 634 846 732 901
392 433 396 311 217 51 44 48 28 82 84 91 281 405 484 348 178 301 562 364 804 814
396 309 325 363 279 71 11 18 47 127 82 238 350 466 505 391 161 148 496 608 748 891
274 398 438 315 186 118 57 89 293 236 274 305 212 344 352 144 120 224 480 382 647 683
302 298 284 261 178 169 219 288 331 315 306 379 262 170 166 108 469 435 320 392 300 253
47 139 273 303 322 318 300 324 271 241 252 345 84 0 0 63 259 491 552 491 134 149
35 140 234 254 295 357 431 499 387 366 350 391 64 0 0 0 149 620 627 580 418 153
41 215 340 374 350 452 585 678 696 575 550 458 7 1 0 0 238 507 395 335 240 317
12 110 147 235 578 601 657 691 567 640 618 535 28 0 0 0 1 341 294 336 300 274
61 46 157 348 373 677 569 423 337 581 634 116 101 0 1 0 45 288 325 336 179 13
135 195 363 581 423 505 273 138 335 573 552 363 58 4 2 0 417 504 209 201 92 9
CIN
-0 -0 -0 -0 -0 -0 -0 -0 -0 -0 -0 -0 -0 -0 -0 -0 -0 -0 -0 -0 -0 -0
-0 -0 -1 -1 -0 -0 -0 -1 -0 -0 -0 -0 -0 -0 -0 -0 -0 -0 -0 -0 -0 -0
-0 -0 -1 -0 -1 -0 -0 -9 -3 -2 -1 -0 -5 -1 -0 -0 -0 -0 -0 -0 -0 -0
-0 -0 -0 -0 -1 -0 -1 -2 -0 -0 -0 -8 -7 -0 -0 -0 -0 -0 -0 -0 -0 -0
-0 -0 -0 -0 -0 -0 -0 -0 -1 -0 -4 -0 -0 -0 -0 -0 -4 -0 -0 -4 -0 -0
-0 -0 -0 -0 -0 -2 -0 -0 -0 -0 -11 -0 -1 -0 -0 -0 -8 -6 -0 -0 -0 -0
-0 -0 -0 -0 -0 -14 -9 -2 -0 -0 -0 -0 -0 -0 -3 -5 -11 -4 -0 -1 -0 -0
-1 -0 -0 -0 -0 -0 -1 -0 -0 -0 -0 -0 -0 -0 -0 -6 -0 -0 -0 -0 -0 -2
-14 -0 -0 -0 -0 -0 -0 -0 -0 -0 -0 -0 -0 -0 -0 -8 -0 -0 -0 -0 -0 -2
-32 -0 -0 -0 -0 -0 -0 -0 -0 -0 -0 -0 -19 -0 -0 -0 -3 -0 -0 -0 -0 -0
-18 -2 -1 -0 -0 -0 -0 -0 -0 -0 -0 -0 -10 -0 -0 -0 -0 -0 -0 -0 -0 -0
-39 -0 -0 -0 -0 -0 -0 -0 -0 -0 -0 -0 -29 -0 -0 -0 -6 -7 -1 -1 -0 -0
-41 -8 -0 -0 -5 -0 -0 -0 -0 -0 -0 -14 -5 -0 -0 -0 -29 -0 -0 -2 -0 -0
-58 -15 -0 -0 -5 -1 -0 -1 -0 -0 -0 -0 -25 -35 -0 -0 -3 -0 -1 -2 -1 -5
Wind_Speed
6 4 3 2 3 3 6 5 6 5 4 3 3 3 3 3 4 5 4 6 6 3
6 4 5 6 5 5 5 6 6 4 3 2 2 2 4 5 7 5 3 2 5 6
6 7 7 6 5 6 6 5 6 4 2 1 2 3 4 4 4 4 4 4 5 4
6 7 7 6 7 7 7 6 6 5 4 2 3 3 3 1 3 5 4 4 4 5
6 6 6 7 7 7 7 7 5 5 4 3 2 2 3 6 3 3 5 4 5 6
6 6 6 7 6 7 7 6 5 5 6 5 4 4 5 10 5 3 5 6 5 8
6 6 7 8 7 7 7 7 7 6 7 6 5 6 8 6 5 4 6 5 7 8
6 7 9 9 8 7 7 6 7 8 7 8 6 5 7 4 7 7 7 6 8 7
8 9 9 9 9 8 7 7 7 6 7 7 7 8 8 3 3 7 9 11 10 10
9 10 10 10 10 8 8 7 7 8 7 8 9 5 2 8 3 6 5 10 11 10
11 11 10 10 10 8 7 7 6 5 7 7 8 5 1 5 5 5 8 9 10 13
11 11 10 10 9 8 8 7 5 6 8 10 9 5 5 3 4 6 9 8 10 10
12 11 10 10 9 8 8 7 6 6 8 9 10 6 6 5 6 8 6 10 12 13
12 11 9 9 8 7 7 8 6 7 8 8 9 7 1 3 8 6 8 9 9 9
Wind_Direction
149 162 170 126 115 154 156 144 152 186 188 175 167 147 168 212 220 206 216 220 229 214
159 153 95 113 151 158 129 130 175 193 173 186 179 165 175 199 200 193 204 190 224 221
155 149 130 140 144 154 138 167 173 186 194 215 166 196 185 209 187 195 166 178 196 221
157 148 147 147 155 159 169 180 184 171 186 195 175 166 187 63 214 172 154 138 178 197
154 164 150 151 151 162 180 190 172 160 171 180 158 142 108 116 84 107 135 129 160 151
149 159 167 149 147 169 171 176 170 151 150 145 115 103 81 75 64 93 123 152 128 134
144 147 153 142 147 159 167 166 154 140 120 123 102 85 87 86 99 81 89 148 121 107
129 136 143 142 148 147 159 151 138 138 131 116 124 92 103 111 111 127 118 95 82 67
137 136 137 141 142 147 133 136 136 136 132 127 89 55 20 22 103 107 104 102 103 100
144 139 144 144 143 137 143 136 135 141 142 122 119 114 35 338 110 107 102 107 116 116
152 142 141 146 137 142 148 143 140 148 133 128 109 138 150 324 108 110 111 112 114 119
154 150 146 134 141 149 154 138 134 138 147 128 132 161 191 170 127 138 110 119 113 122
159 156 153 134 138 149 153 146 141 134 126 120 131 159 200 255 137 118 114 115 99 62
168 166 156 143 143 147 164 135 134 111 125 127 128 138 118 337 138 142 127 123 123 110